TimeCDT,TemperatureF,Dew PointF,Humidity,Sea Level PressureIn,VisibilityMPH,Wind Direction,Wind SpeedMPH,Gust SpeedMPH,PrecipitationIn,Events,Conditions,WindDirDegrees,DateUTC
12:02 AM,64.4,62.6,94,30.15,0.8,Calm,Calm,-,N/A,,Clear,0,2012-10-05 05:02:00
12:21 AM,62.6,60.8,94,30.15,1.8,West,4.6,-,N/A,,Clear,260,2012-10-05 05:21:00
12:25 AM,62.6,60.8,94,30.15,3.0,Calm,Calm,-,N/A,,Clear,0,2012-10-05 05:25:00
12:53 AM,63.0,61.0,93,30.14,3.0,ENE,3.5,-,N/A,,Clear,70,2012-10-05 05:53:00
1:34 AM,62.6,60.8,94,30.15,2.5,Calm,Calm,-,N/A,,Clear,0,2012-10-05 06:34:00
1:41 AM,62.6,60.8,94,30.15,0.8,Calm,Calm,-,N/A,,Clear,0,2012-10-05 06:41:00
1:50 AM,62.6,60.8,94,30.14,1.8,Calm,Calm,-,N/A,,Clear,0,2012-10-05 06:50:00
1:53 AM,63.0,61.0,93,30.14,1.2,Calm,Calm,-,N/A,,Clear,0,2012-10-05 06:53:00
2:02 AM,62.6,60.8,94,30.14,0.5,Calm,Calm,-,N/A,Fog,Fog,0,2012-10-05 07:02:00
2:09 AM,62.6,60.8,94,30.14,0.5,Calm,Calm,-,N/A,Fog,Fog,0,2012-10-05 07:09:00
2:18 AM,62.6,60.8,94,30.14,1.2,Calm,Calm,-,N/A,,Partly Cloudy,0,2012-10-05 07:18:00
2:22 AM,62.6,60.8,94,30.14,3.0,Calm,Calm,-,N/A,,Partly Cloudy,0,2012-10-05 07:22:00
2:48 AM,62.6,60.8,94,30.14,2.0,Calm,Calm,-,N/A,,Clear,0,2012-10-05 07:48:00
2:53 AM,62.6,60.8,94,30.15,2.5,Calm,Calm,-,N/A,,Clear,0,2012-10-05 07:53:00
3:00 AM,62.6,60.8,94,30.14,4.0,Calm,Calm,-,N/A,,Clear,0,2012-10-05 08:00:00
3:34 AM,62.6,60.8,94,30.14,2.0,Calm,Calm,-,N/A,,Clear,0,2012-10-05 08:34:00
3:46 AM,62.6,60.8,94,30.14,3.0,Calm,Calm,-,N/A,,Clear,0,2012-10-05 08:46:00
3:53 AM,62.1,60.1,93,30.13,4.0,Calm,Calm,-,N/A,,Clear,0,2012-10-05 08:53:00
4:19 AM,62.6,59.0,88,30.13,2.5,Calm,Calm,-,N/A,,Clear,0,2012-10-05 09:19:00
4:28 AM,60.8,59.0,94,30.13,3.0,ESE,3.5,-,N/A,,Clear,120,2012-10-05 09:28:00
4:30 AM,60.8,59.0,94,30.13,1.8,ESE,4.6,-,N/A,,Clear,110,2012-10-05 09:30:00
4:41 AM,60.8,59.0,94,30.14,3.0,Calm,Calm,-,N/A,,Clear,0,2012-10-05 09:41:00
4:53 AM,62.1,60.1,93,30.13,3.0,Calm,Calm,-,N/A,,Clear,0,2012-10-05 09:53:00
5:26 AM,60.8,59.0,94,30.13,1.5,Calm,Calm,-,N/A,,Clear,0,2012-10-05 10:26:00
5:42 AM,60.8,59.0,94,30.13,2.0,Calm,Calm,-,N/A,,Clear,0,2012-10-05 10:42:00
5:50 AM,60.8,59.0,94,30.13,1.5,Calm,Calm,-,N/A,,Clear,0,2012-10-05 10:50:00
5:53 AM,61.0,59.0,93,30.13,1.5,Calm,Calm,-,N/A,,Clear,0,2012-10-05 10:53:00
6:11 AM,60.8,59.0,94,30.14,3.0,Calm,Calm,-,N/A,,Clear,0,2012-10-05 11:11:00
6:27 AM,60.8,57.2,88,30.14,1.8,Calm,Calm,-,N/A,,Clear,0,2012-10-05 11:27:00
6:39 AM,60.8,57.2,88,30.14,3.0,Calm,Calm,-,N/A,,Clear,0,2012-10-05 11:39:00
6:50 AM,60.8,57.2,88,30.14,1.8,Calm,Calm,-,N/A,,Clear,0,2012-10-05 11:50:00
6:53 AM,60.1,57.9,93,30.14,1.0,Calm,Calm,-,N/A,,Clear,0,2012-10-05 11:53:00
7:00 AM,60.8,57.2,88,30.14,0.8,Calm,Calm,-,N/A,,Clear,0,2012-10-05 12:00:00
7:07 AM,60.8,57.2,88,30.14,0.5,Calm,Calm,-,N/A,Fog,Fog,0,2012-10-05 12:07:00
7:28 AM,60.8,57.2,88,30.14,1.2,Calm,Calm,-,N/A,,Partly Cloudy,0,2012-10-05 12:28:00
7:37 AM,60.8,59.0,94,30.14,2.5,Calm,Calm,-,N/A,,Clear,0,2012-10-05 12:37:00
7:48 AM,62.6,60.8,94,30.14,3.0,Calm,Calm,-,N/A,,Clear,0,2012-10-05 12:48:00
7:53 AM,62.1,60.1,93,30.14,3.0,Calm,Calm,-,N/A,,Clear,0,2012-10-05 12:53:00
8:53 AM,69.1,64.0,84,30.15,9.0,Calm,Calm,-,N/A,,Clear,0,2012-10-05 13:53:00
9:53 AM,75.0,66.9,76,30.15,10.0,Calm,Calm,-,N/A,,Clear,0,2012-10-05 14:53:00
10:53 AM,81.0,66.9,62,30.14,10.0,SSE,8.1,-,N/A,,Clear,160,2012-10-05 15:53:00
11:53 AM,82.9,64.9,54,30.12,10.0,South,8.1,-,N/A,,Clear,190,2012-10-05 16:53:00
12:53 PM,84.0,64.9,53,30.10,10.0,South,5.8,-,N/A,,Scattered Clouds,190,2012-10-05 17:53:00
1:53 PM,86.0,62.1,44,30.07,10.0,Variable,6.9,-,N/A,,Scattered Clouds,0,2012-10-05 18:53:00
2:53 PM,84.9,63.0,48,30.04,10.0,South,4.6,-,N/A,,Scattered Clouds,190,2012-10-05 19:53:00
3:53 PM,86.0,63.0,46,30.02,10.0,SW,5.8,-,N/A,,Clear,220,2012-10-05 20:53:00
4:53 PM,86.0,63.0,46,30.00,10.0,Variable,3.5,-,N/A,,Clear,0,2012-10-05 21:53:00
5:53 PM,84.0,64.9,53,29.99,10.0,Calm,Calm,-,N/A,,Clear,0,2012-10-05 22:53:00
6:53 PM,75.0,69.1,82,29.99,10.0,Calm,Calm,-,N/A,,Clear,0,2012-10-05 23:53:00
7:53 PM,71.1,68.0,90,30.01,8.0,Calm,Calm,-,N/A,,Clear,0,2012-10-06 00:53:00
8:53 PM,70.0,66.9,90,30.01,6.0,Calm,Calm,-,N/A,,Clear,0,2012-10-06 01:53:00
9:19 PM,69.8,66.2,88,30.02,1.8,Calm,Calm,-,N/A,,Clear,0,2012-10-06 02:19:00
9:29 PM,68.0,66.2,94,30.02,0.5,Calm,Calm,-,N/A,Fog,Fog,0,2012-10-06 02:29:00
9:41 PM,69.8,66.2,88,30.02,2.5,Calm,Calm,-,N/A,,Clear,0,2012-10-06 02:41:00
9:48 PM,69.8,66.2,88,30.02,4.0,Calm,Calm,-,N/A,,Clear,0,2012-10-06 02:48:00
9:53 PM,68.0,66.0,93,30.01,5.0,Calm,Calm,-,N/A,,Clear,0,2012-10-06 02:53:00
10:22 PM,68.0,66.2,94,30.03,2.5,Calm,Calm,-,N/A,,Clear,0,2012-10-06 03:22:00
10:30 PM,68.0,64.4,88,30.03,3.0,Calm,Calm,-,N/A,,Clear,0,2012-10-06 03:30:00
10:34 PM,66.2,64.4,94,30.03,1.8,Calm,Calm,-,N/A,,Clear,0,2012-10-06 03:34:00
10:53 PM,66.9,64.9,93,30.02,1.0,Calm,Calm,-,N/A,,Clear,0,2012-10-06 03:53:00
11:11 PM,66.2,64.4,94,30.02,2.5,Calm,Calm,-,N/A,,Clear,0,2012-10-06 04:11:00
11:36 PM,66.2,64.4,94,30.02,1.0,Calm,Calm,-,N/A,,Clear,0,2012-10-06 04:36:00
11:51 PM,66.2,64.4,94,30.02,3.0,Calm,Calm,-,N/A,,Clear,0,2012-10-06 04:51:00
11:53 PM,66.0,64.0,93,30.01,3.0,Calm,Calm,-,N/A,,Clear,0,2012-10-06 04:53:00